www.pogodaiklimat.ru

Погода и климат >> Архив погоды >> Бразилия >> Баия >> Ильеус


ПОГОДА в Ильеусе

  • Прогноз погоды в Ильеусе
  • Монитор погоды в Ильеусе

АРХИВ ПОГОДЫ в Ильеусе

Время (UTC), дата Ветер
(напр.,м/с)
 
Видим.   Явления Облачность Т
(С)
Тd
(С)
f
(%)
Тe
(С)
Тes
(С)
Комфортность P
(гПа)
Po
(гПа)
Тmin
(С)
Tmax
(С)
R
(мм)
R24
(мм)
S
(см)
18 17.03 В 6 20 км 1/1 600 м
[Cu med, cong]
+31.1 +23.5 64 +42 +45 опасность
перегрева
1011.3 1010.7
21 17.03 СВ 4 20 км 1/0
[Ci fib]
+29.1 +23.3 71 +39 +39 очень
душно
1010.9 1010.3
00 18.03 В 2 20 км ясно +28.3 +23.0 73 +38 +38 очень
душно
1012.4 1011.8 +31.3
03 18.03 З 3 20 км 4/4 600 м
[Cu med, cong]
+24.7 +23.5 93 +33 +33 очень
душно
1012.4 1011.8
06 18.03 З 3 20 км 3/3 600 м
[Cu med, cong]
+23.7 +23.0 96 +31 +31 очень
душно
1011.6 1011.0
09 18.03 СЗ 2 20 км 4/3 600 м
[Cu med, cong Ci fib]
+23.4 +22.7 96 +33 +33 очень
душно
1012.7 1012.1
12 18.03 С 2 20 км 4/4 600 м
[Cu med, cong]
+30.6 +25.0 72 +44 +51 опасность
перегрева
1014.2 1013.6 +23.4
15 18.03 СВ 5 20 км 4/4 600 м
[Cu med, cong]
+31.5 +24.4 66 +44 +51 опасность
перегрева
1013.8 1013.2
18 18.03 СВ 4 20 км 5/1 600 м
[Cu hum Ci fib]
+31.3 +24.7 68 +44 +49 опасность
перегрева
1009.4 1008.8
21 18.03 СВ 3 20 км 6/0
[Ci fib]
+29.1 +24.6 77 +41 +41 опасность
перегрева
1009.1 1008.5
00 19.03 В 3 20 км ясно +28.9 +24.9 79 +41 +41 опасность
перегрева
1010.6 1010.0 +31.8
03 19.03 С 2 20 км 5/5 600 м
[Cu med, cong]
+28.4 +25.1 82 +41 +41 опасность
перегрева
1010.8 1010.2
06 19.03 ЮЗ 1 20 км 4/4 600 м
[Cu med, cong]
+26.1 +25.1 94 +37 +37 очень
душно
1010.1 1009.5
09 19.03 З 3 20 км 5/5 600 м
[Cu med, cong]
+25.6 +24.9 96 +36 +37 очень
душно
1010.4 1009.8
12 19.03 С 4 20 км 5/3 600 м
[Cu med, cong Ac trans Ci fib]
+30.3 +25.3 75 +44 +49 опасность
перегрева
1011.6 1011.0 +25.6
15 19.03 СВ 6 20 км 1/1 600 м
[Cu hum]
+31.6 +25.4 70 +46 +53 опасность
перегрева
1009.6 1009.0
18 19.03 СВ 4 20 км 4/0
[Ci]
+31.5 +25.0 68 +45 +50 опасность
перегрева
1006.8 1006.2
21 19.03 СВ 4 20 км 8/0
[Ci]
+29.4 +25.8 81 +44 +44 опасность
перегрева
1006.4 1005.8
00 20.03 СВ 2 20 км 9/0
[Ci]
+28.9 +26.1 85 +44 +44 опасность
перегрева
1009.1 1008.5 +32.0
03 20.03 С 2 20 км 8/5 300 м
[Cu hum Ci fib]
+29.0 +26.1 84 +44 +44 опасность
перегрева
1008.7 1008.1
06 20.03 З 2 12 км осадки на расстоянии 5/5 300 м
[Cu Sc]
+27.6 +26.0 91 +41 +41 опасность
перегрева
1007.2 1006.6
09 20.03 З 4 5000 м дым 8/6 600 м
[Cu Sc Ci]
+27.2 +26.0 93 +41 +41 опасность
перегрева
1008.9 1008.3
12 20.03 С 2 10 км осадки на расстоянии 10/6 600 м
[Cu Sc As op]
+29.4 +25.9 81 +44 +45 опасность
перегрева
1010.4 1009.8 +27.2
15 20.03 Ю 4 20 км {ливн. осадки} 10/4 600 м
[Cu med, cong Ac trans Ci fib]
+32.0 +25.6 69 +47 +51 опасность
перегрева
1009.1 1008.5
18 20.03 В 4 20 км {ливн. осадки} 9/1 600 м
[Cu med, cong Ac trans Ci]
+30.8 +27.0 80 +48 +51 опасность
перегрева
1005.5 1004.9 3
21 20.03 В 1 20 км 9/0
[Ac trans Ci]
+29.1 +25.9 83 +44 +44 опасность
перегрева
1006.1 1005.5
00 21.03 В 2 20 км 9/3 600 м
[Cu med, cong Ac trans Ci fib]
+28.8 +26.8 89 +45 +45 опасность
перегрева
1008.5 1007.9 +32.0
03 21.03 СЗ 2 20 км гроза без осадков 9/6 300 м
[Cb cap Ac trans]
+27.6 +26.5 94 +42 +42 опасность
перегрева
1008.8 1008.2
06 21.03 З 2 20 км 9/5 300 м
[Sc Ac trans Ci fib]
+26.9 +26.2 96 +41 +41 опасность
перегрева
1007.1 1006.5
09 21.03 З 2 1000 м сильн. гроза, ливневой дождь 10/10 300 м
[Cb calv]
+25.1 +25.1 100 +36 +36 очень
душно
1008.3 1007.7
12 21.03 СЗ 1 5000 м гроза, ливневой дождь 10/4 600 м
[Cb cap Ac As]
+24.4 +24.4 100 +34 +36 очень
душно
1010.8 1010.2 +24.8 52
18 21.03 С 1 8000 м в посл. час дождь {гроза} 10/1 600 м
[Cu med, cong As op]
+25.7 +25.2 97 +37 +39 очень
душно
1008.6 1008.0 9
00 22.03 З 2 10 км осадки на расстоянии 9/8 600 м
[Sc As trans]
+25.7 +25.4 98 +37 +37 очень
душно
1010.1 1009.5 +26.3
03 22.03 З 2 10 км осадки на расстоянии 10/8 600 м
[Sc Ac trans]
+25.2 +25.1 99 +36 +36 очень
душно
1010.4 1009.8
06 22.03 З 1 20 км 9/6 600 м
[Sc Ac trans]
+25.5 +25.0 97 +36 +36 очень
душно
1009.5 1008.9
09 22.03 З 2 15 км осадки на расстоянии 9/6 600 м
[Cu med, cong Ac trans]
+25.0 +24.7 98 +35 +35 очень
душно
1011.0 1010.4
12 22.03 З 2 20 км 9/6 600 м
[Cu med, cong Ac lent]
+28.2 +25.2 84 +41 +43 опасность
перегрева
1013.2 1012.6 +25.0 9
15 22.03 ЮВ 3 20 км 9/5 600 м
[Cu med, cong Ac trans]
+29.3 +25.1 78 +42 +47 опасность
перегрева
1012.4 1011.8
18 22.03 ЮВ 4 10 км осадки на расстоянии 9/8 600 м
[Sc As trans]
+28.1 +25.2 84 +41 +41 опасность
перегрева
1010.2 1009.6
21 22.03 Ю 4 8000 м слаб. дождь 10/9 600 м
[Sc As op]
+26.5 +24.5 89 +37 +37 очень
душно
1010.8 1010.2
00 23.03 ЮЗ 1 20 км {дождь} 8/4 300 м
[Cu Sc As op]
+25.5 +25.0 97 +36 +36 очень
душно
1014.1 1013.5 +30.5 0.0
03 23.03 ЮЗ 3 20 км 8/3 600 м
[Cu med, cong Ac und]
+25.1 +24.3 95 +35 +35 очень
душно
1012.9 1012.3
06 23.03 З 1 20 км 9/3 600 м
[Cu hum Ac trans Ci fib]
+25.0 +24.2 95 +34 +34 очень
душно
1011.9 1011.3
09 23.03 З 1 20 км 9/6 600 м
[Cu hum Ac trans Ci fib]
+24.9 +23.4 91 +33 +34 очень
душно
1012.7 1012.1
12 23.03 З 3 20 км 9/8 600 м
[Sc As trans]
+27.3 +24.4 84 +38 +40 очень
душно
1014.5 1013.9 +24.9 0.5
15 23.03 ЮВ 3 20 км 9/8 600 м
[Sc As trans]
+29.6 +24.4 74 +42 +44 опасность
перегрева
1012.7 1012.1
18 23.03 В 3 20 км 9/6 600 м
[Cu Sc Ac trans Ci fib]
+30.4 +24.3 70 +42 +44 опасность
перегрева
1010.6 1010.0
21 23.03 Ю 3 20 км 9/4 600 м
[Cu med, cong Ac und Ci fib]
+29.1 +24.5 76 +41 +41 опасность
перегрева
1011.3 1010.7
00 24.03 Ю 3 20 км 9/3 600 м
[Cu hum Ac trans Ci sp]
+27.0 +23.8 83 +37 +37 очень
душно
1013.3 1012.7 +30.4
03 24.03 ЮЗ 2 20 км 9/9 600 м
[Cu Sc]
+26.1 +23.7 87 +36 +36 очень
душно
1013.4 1012.8
06 24.03 ЮЗ 1 20 км 9/9 600 м
[Sc]
+25.1 +24.0 94 +35 +35 очень
душно
1011.4 1010.8
09 24.03 З 3 20 км 10/10 600 м
[Sc]
+25.4 +24.1 93 +35 +35 очень
душно
1012.3 1011.7
12 24.03 З 2 20 км 8/5 600 м
[Cu Sc Ac trans Ci]
+28.3 +24.8 81 +40 +45 очень
душно
1014.3 1013.7 +25.1
15 24.03 В 3 7000 м слаб. дождь 9/6 300 м
[Cu Sc Ac und]
+28.1 +25.7 87 +42 +45 опасность
перегрева
1013.7 1013.1

 

Местоположение метеостанции Ильеус (Баия, Бразилия): широта -14.81 долгота -39.03 высота над уровнем моря 4 м.

В архиве по умолчанию представлена погода в Ильеусе за последнюю неделю. Архивные данные за месяц целиком и за предыдущие месяцы, начиная с января 2011 года, Вы можете получить, выбрав интересующий диапазон дат из раскрывающегося списка и нажав кнопку "Ввод!".


*Определитесь, кто Вы:
робот инопланетянин человек

Внимание! Время в таблицах - всемирное. Для получения местного времени необходимо прибавить поправку, которая равна -3 ч.

Смотрите также архив погоды в соседних городах и на ближайших метеорологических станциях:

Погода в Ильеусе (Баия, Бразилия) (23 км)
Погода в Уне (Баия, Бразилия) (53 км)
Погода в Марау (Баия, Бразилия) (100 км)
Погода в Ипиау (Баия, Бразилия) (101 км)
Погода в Итапетинге (Баия, Бразилия) (138 км)
Погода в Бельмонте (Баия, Бразилия) (143 км)
Погода в Валенце (Баия, Бразилия) (163 км)
Погода в Порту-Сегуру (Баия, Бразилия) (175 км)
Погода в Порту-Сегуру (Баия, Бразилия) (180 км)
Погода в Итирусу (Баия, Бразилия) (185 км)

Пояснения к столбцам:

Ветер - указаны скорость ветра в м/с - средняя за 10 мин, порывы в срок и между сроками (в фигурных скобках) и направление, откуда дует ветер: С - северный, СВ - северо-восточный, В - восточный, ЮВ - юго-восточный, Ю - южный, ЮЗ - юго-западный, З - западный, СЗ - северо-западный.
Видимость - горизонтальная дальность видимости в метрах или километрах. При видимости от 1 до 10 км при отсутствии осадков обычно наблюдается дымка, при ухудшении видимости до 1 км и менее - туман. В сухую погоду видимость может ухудшаться дымом, пылью или мглою.
Явления - указаны атмосферные явления, наблюдавшиеся в срок или в последний час перед сроком; фигурными скобками обозначены явления, наблюдавшиеся между сроками (за 1-3 часа до срока); квадратными скобками обозначены град или гололедные отложения с указанием их диаметра в мм.
Облачность - указаны через наклонную черту общая и нижняя облачность в баллах и высота нижней границы облаков в метрах; квадратными скобками обозначены формы облаков: Ci - перистые, Cs - перисто-слоистые, Cc - перисто-кучевые, Ac - высококучевые, As - высокослоистые, Sc - слоисто-кучевые, Ns - слоисто-дождевые, Cu - кучевые, Cb - кучево-дождевые. Подробнее классификацию облаков см. в Атласе облаков (PDF).
T - Температура воздуха - температура, измеренная на высоте 2 м над землей.
Td - Температура точки росы - температура, при понижении до которой содержащийся в воздухе водяной пар достигнет насыщения.
f - Относительная влажность воздуха - влажноcть воздуха, измеренная на высоте 2 м над землей.
Te - Эффективная температура - температура, которую ощущает одетый по сезону человек в тени. Характеристика душности погоды. При расчете учитывается влияние влажности воздуха и скорости ветра на теплоощущения человека.
Tes - Эффективная температура на солнце - температура, которую ощущает человек, с поправкой на солнечный нагрев. Характеристика знойности погоды. Зависит от высоты солнца над горизонтом, облачности и скорости ветра. Ночью, в пасмурную погоду, а также при ветре 12 м/с и более поправка равна нулю.
P - Атмосферное давление - приведенное к уровню моря атмосферное давление.
Po - Атмосферное давление - измеренное на уровне метеостанции атмосферное давление.
Tmin - Минимальная температура - минимум температуры воздуха на высоте 2 м над землей.
Tmax - Максимальная температура - максимум температуры воздуха на высоте 2 м над землей.
R - Количество осадков - Количество выпавших осадков за период времени, мм. При наведении курсора мыши на число - период времени, за который выпало указанное количество осадков.
R24 - Количество осадков - Количество выпавших осадков за 24 часа, мм.
S - Снежный покров - Высота снежного покрова, см. При наведении курсора мыши на число - состояние снежного покрова и степень покрытия местности в баллах.